CSG-2

Last updated on Mon Jun 22 2026 00:02:52 GMT+0000 (Coordinated Universal Time)

1 51444U 22008A 26172.54077309 .00000579 00000+0 79275-4 0 9997 2 51444 97.8890 356.0747 0001495 91.9346 268.2038 14.82159517237233
UTC large
Height (km)
Speed (km/s)
/
Latitude / Longitude
Inclination (degrees)
Orbital Period (minutes)
Azimuth
Elevation
Range (km)
Doppler Factor

Next 0 passes for location: London (51.5072 / 0.1276)

No passes found over London.
CSG-2